When you browse on this site, cookies collect data to enhance your experience and personalize the content and advertising you see.
Visit our Privacy Policy to learn more. By continuing to use the site, you agree to this use of cookies and data.
  • In Switzerland
  • List of Countries
  • For 7 days
  • Water Temperature
  • Satellite Maps
  • Weather Map
  • Weather Widgets
  • user-avatar
    Login

    Hourly Weather Zurich

    Today, 24 May, Friday

    Time Temperature Precipitation Wind Pressure Humidity
    00:00 +11°C° 0 mm 1 mps 719 mmHg 88%
    01:00 +11°C° 0 mm 1 mps 719 mmHg 86%
    02:00 +10°C° 0 mm 1 mps 719 mmHg 87%
    03:00 +10°C° 0 mm 1 mps 719 mmHg 87%
    04:00 +9°C° 0 mm 1 mps 718 mmHg 88%
    05:00 +11°C° 0 mm 1 mps 718 mmHg 83%
    06:00 +11°C° 0 mm 0 mps 718 mmHg 78%
    07:00 +13°C° 0 mm 0 mps 718 mmHg 73%
    08:00 +15°C° 0 mm 0 mps 719 mmHg 66%
    09:00 +18°C° 0 mm 0 mps 719 mmHg 59%
    10:00 +20°C° 0 mm 0 mps 719 mmHg 52%
    11:00 +23°C° 0 mm 1 mps 719 mmHg 48%
    12:00 +24°C° 0 mm 1 mps 719 mmHg 44%
    13:00 +25°C° 0 mm 1 mps 719 mmHg 41%
    14:00 +25°C° 0 mm 1 mps 718 mmHg 41%
    15:00 +25°C° 0 mm 1 mps 718 mmHg 41%
    16:00 +24°C° 0 mm 1 mps 718 mmHg 42%
    17:00 +23°C° 0 mm 1 mps 718 mmHg 52%
    18:00 +21°C° 0 mm 1 mps 718 mmHg 62%
    19:00 +19°C° 0 mm 2 mps 717 mmHg 72%
    20:00 +18°C° 0 mm 1 mps 717 mmHg 77%
    21:00 +15°C° 0 mm 1 mps 717 mmHg 83%
    22:00 +13°C° 0 mm 1 mps 718 mmHg 89%
    23:00 +12°C° 0 mm 1 mps 718 mmHg 89%

    Tomorrow, 25 May, Saturday

    Time Temperature Precipitation Wind Pressure Humidity
    00:00 +12°C° 0 mm 1 mps 718 mmHg 90%
    01:00 +11°C° 0 mm 1 mps 718 mmHg 91%
    02:00 +11°C° 0.1 mm 1 mps 717 mmHg 91%
    03:00 +10°C° 0.1 mm 0 mps 717 mmHg 92%
    04:00 +9°C° 0.1 mm 0 mps 717 mmHg 92%
    05:00 +11°C° 0.1 mm 0 mps 717 mmHg 90%
    06:00 +12°C° 0.1 mm 0 mps 718 mmHg 87%
    07:00 +13°C° 0.1 mm 0 mps 718 mmHg 85%
    08:00 +15°C° 0.2 mm 0 mps 718 mmHg 81%
    09:00 +18°C° 0.2 mm 1 mps 718 mmHg 77%
    10:00 +20°C° 0.2 mm 1 mps 719 mmHg 72%
    11:00 +19°C° 0.9 mm 1 mps 719 mmHg 76%
    12:00 +18°C° 0.9 mm 2 mps 718 mmHg 80%
    13:00 +18°C° 0.9 mm 2 mps 718 mmHg 84%
    14:00 +17°C° 1.1 mm 2 mps 718 mmHg 87%
    15:00 +18°C° 1.1 mm 1 mps 718 mmHg 89%
    16:00 +15°C° 1.1 mm 0 mps 718 mmHg 91%
    17:00 +14°C° 0.5 mm 0 mps 718 mmHg 92%
    18:00 +15°C° 0.5 mm 1 mps 718 mmHg 94%
    19:00 +14°C° 0.5 mm 1 mps 718 mmHg 95%
    20:00 +14°C° 0.2 mm 1 mps 719 mmHg 95%
    21:00 +13°C° 0.2 mm 1 mps 719 mmHg 96%
    22:00 +12°C° 0.2 mm 1 mps 719 mmHg 96%
    23:00 +12°C° 0.1 mm 1 mps 719 mmHg 96%

    Day after tomorrow, 26 May, Sunday

    Time Temperature Precipitation Wind Pressure Humidity
    00:00 +11°C° 0.1 mm 1 mps 719 mmHg 95%
    01:00 +11°C° 0.1 mm 1 mps 719 mmHg 95%
    02:00 +9°C° 0 mm 0 mps 719 mmHg 95%
    03:00 +9°C° 0 mm 0 mps 719 mmHg 95%
    04:00 +8°C° 0 mm 0 mps 719 mmHg 95%
    05:00 +10°C° 0 mm 0 mps 719 mmHg 93%
    06:00 +11°C° 0 mm 0 mps 719 mmHg 92%
    07:00 +12°C° 0 mm 0 mps 719 mmHg 91%
    08:00 +14°C° 0 mm 0 mps 719 mmHg 81%
    09:00 +17°C° 0 mm 0 mps 719 mmHg 71%
    10:00 +21°C° 0 mm 1 mps 719 mmHg 62%
    11:00 +20°C° 0.1 mm 0 mps 720 mmHg 58%
    12:00 +21°C° 0.1 mm 0 mps 720 mmHg 54%
    13:00 +23°C° 0.1 mm 0 mps 720 mmHg 51%
    14:00 +22°C° 0 mm 0 mps 719 mmHg 50%
    15:00 +24°C° 0 mm 1 mps 719 mmHg 50%
    16:00 +23°C° 0 mm 1 mps 719 mmHg 49%
    17:00 +22°C° 0 mm 1 mps 719 mmHg 57%
    18:00 +21°C° 0 mm 1 mps 718 mmHg 65%
    19:00 +19°C° 0 mm 1 mps 718 mmHg 73%
    20:00 +18°C° 0 mm 1 mps 718 mmHg 78%
    21:00 +15°C° 0 mm 1 mps 718 mmHg 84%
    22:00 +13°C° 0 mm 1 mps 719 mmHg 89%
    23:00 +13°C° 0 mm 1 mps 718 mmHg 90%

    27 May, Monday

    Time Temperature Precipitation Wind Pressure Humidity
    00:00 +13°C° 0 mm 1 mps 718 mmHg 91%
    01:00 +12°C° 0 mm 1 mps 718 mmHg 92%
    02:00 +12°C° 0 mm 1 mps 718 mmHg 93%
    03:00 +12°C° 0 mm 1 mps 718 mmHg 94%
    04:00 +11°C° 0 mm 1 mps 717 mmHg 95%
    05:00 +12°C° 0 mm 1 mps 717 mmHg 91%
    06:00 +13°C° 0 mm 1 mps 718 mmHg 88%
    07:00 +13°C° 0 mm 0 mps 718 mmHg 85%
    08:00 +16°C° 0 mm 1 mps 718 mmHg 77%
    09:00 +19°C° 0 mm 1 mps 718 mmHg 69%
    10:00 +21°C° 0 mm 1 mps 718 mmHg 61%
    11:00 +22°C° 0.1 mm 1 mps 718 mmHg 59%
    12:00 +23°C° 0.1 mm 1 mps 718 mmHg 56%
    13:00 +24°C° 0.1 mm 1 mps 717 mmHg 53%
    14:00 +23°C° 0.4 mm 2 mps 717 mmHg 60%
    15:00 +21°C° 0.4 mm 2 mps 716 mmHg 67%
    16:00 +20°C° 0.4 mm 3 mps 716 mmHg 74%
    17:00 +20°C° 0.8 mm 2 mps 716 mmHg 79%
    18:00 +20°C° 0.8 mm 1 mps 716 mmHg 84%
    19:00 +17°C° 0.8 mm 0 mps 715 mmHg 89%
    20:00 +16°C° 0.5 mm 0 mps 715 mmHg 91%
    21:00 +15°C° 0.5 mm 0 mps 715 mmHg 92%
    22:00 +14°C° 0.5 mm 0 mps 715 mmHg 93%
    23:00 +14°C° 0.6 mm 1 mps 715 mmHg 94%

    28 May, Tuesday

    Time Temperature Precipitation Wind Pressure Humidity
    00:00 +14°C° 0.6 mm 1 mps 715 mmHg 95%
    01:00 +14°C° 0.6 mm 1 mps 714 mmHg 96%
    02:00 +14°C° 0.3 mm 1 mps 714 mmHg 96%
    03:00 +14°C° 0.3 mm 1 mps 713 mmHg 97%
    04:00 +13°C° 0.3 mm 1 mps 713 mmHg 97%
    05:00 +13°C° 0.2 mm 1 mps 713 mmHg 97%
    06:00 +13°C° 0.2 mm 1 mps 713 mmHg 97%
    07:00 +14°C° 0.2 mm 2 mps 712 mmHg 96%
    08:00 +14°C° 0.1 mm 2 mps 712 mmHg 91%
    09:00 +15°C° 0.1 mm 2 mps 712 mmHg 86%
    10:00 +15°C° 0.1 mm 2 mps 712 mmHg 81%
    11:00 +15°C° 0.5 mm 2 mps 712 mmHg 83%
    12:00 +15°C° 0.5 mm 2 mps 712 mmHg 86%
    13:00 +14°C° 0.5 mm 2 mps 712 mmHg 88%
    14:00 +14°C° 0.8 mm 2 mps 712 mmHg 89%
    15:00 +14°C° 0.8 mm 2 mps 712 mmHg 90%
    16:00 +13°C° 0.8 mm 1 mps 712 mmHg 90%
    17:00 +13°C° 0.8 mm 1 mps 712 mmHg 92%
    18:00 +12°C° 0.8 mm 2 mps 712 mmHg 93%
    19:00 +12°C° 0.8 mm 2 mps 713 mmHg 95%
    20:00 +10°C° 0.8 mm 2 mps 713 mmHg 95%
    21:00 +9°C° 0.8 mm 2 mps 713 mmHg 96%
    22:00 +9°C° 0.8 mm 2 mps 714 mmHg 97%
    23:00 +9°C° 0.6 mm 2 mps 714 mmHg 96%

    29 May, Wednesday

    Time Temperature Precipitation Wind Pressure Humidity
    00:00 +9°C° 0.6 mm 1 mps 714 mmHg 96%
    01:00 +9°C° 0.6 mm 1 mps 714 mmHg 96%
    02:00 +9°C° 0.6 mm 1 mps 714 mmHg 97%
    03:00 +9°C° 0.6 mm 1 mps 714 mmHg 97%
    04:00 +9°C° 0.6 mm 1 mps 714 mmHg 97%
    05:00 +9°C° 0.8 mm 1 mps 714 mmHg 97%
    06:00 +8°C° 0.8 mm 2 mps 715 mmHg 97%
    07:00 +8°C° 0.8 mm 2 mps 715 mmHg 97%
    08:00 +8°C° 1 mm 2 mps 716 mmHg 96%
    09:00 +9°C° 1 mm 2 mps 716 mmHg 96%
    10:00 +9°C° 1 mm 2 mps 716 mmHg 95%
    11:00 +9°C° 1 mm 2 mps 717 mmHg 94%
    12:00 +10°C° 1 mm 2 mps 717 mmHg 93%
    13:00 +11°C° 1 mm 1 mps 717 mmHg 92%
    14:00 +12°C° 0.7 mm 2 mps 718 mmHg 91%
    15:00 +12°C° 0.7 mm 2 mps 718 mmHg 91%
    16:00 +12°C° 0.7 mm 2 mps 718 mmHg 90%
    17:00 +12°C° 0.6 mm 2 mps 719 mmHg 91%
    18:00 +12°C° 0.6 mm 2 mps 719 mmHg 92%
    19:00 +12°C° 0.6 mm 2 mps 719 mmHg 93%
    20:00 +10°C° 0.2 mm 2 mps 720 mmHg 93%
    21:00 +10°C° 0.2 mm 1 mps 721 mmHg 94%
    22:00 +9°C° 0.2 mm 1 mps 721 mmHg 94%
    23:00 +9°C° 0.1 mm 1 mps 722 mmHg 95%
    Show more